Weather History for Arad, Romania

Change the Weather History Date:

Monday, July 29, 2013

  Actual Average Record
Temperature  
Mean Temperature 84 °F -  
Max Temperature 100 °F 80 °F 132 °F (1997)
Min Temperature 68 °F 57 °F 57 °F (2004)
Cooling Degree Days 19    
Growing Degree Days 34 (Base 50)    
Moisture  
Dew Point 61 °F    
Average Humidity 43    
Maximum Humidity 78    
Minimum Humidity 12    
Precipitation  
Precipitation 0.00 in - - ()
Sea Level Pressure  
Sea Level Pressure 29.94 in    
Wind  
Wind Speed 5 mph ()    
Max Wind Speed 14 mph    
Max Gust Speed -    
Visibility 9.3 miles    
Events      
Averages and records for this station are not official NWS values.
T = Trace of Precipitation, MM = Missing Value Source: Averaged Metar Reports

Daily Weather History Graph

Daily Weather History Graph

Search for Another Location

Airport:

Trip Planner

Search our weather history database for the weather conditions in past years. The results will help you decide how hot, cold, wet, or windy it might be!

Date:

Astronomy

Jul. 29, 2013 Rise Set
Actual Time 6:13 AM EEST 9:08 PM EEST
Civil Twilight 5:38 AM EEST 9:43 PM EEST
Nautical Twilight 4:53 AM EEST 10:28 PM EEST
Astronomical Twilight 3:59 AM EEST 11:21 PM EEST
Moon No Moon Rise 2:06 PM EEST (7/29)
Length of Visible Light 16h 05m
Length of Day
14h 55m
Waning Gibbous, 54% of the Moon is Illuminated
Jul 29
Waning Gibbous
Jul 29
Last Quarter
Aug 7
New
Aug 14
First Quarter
Aug 21
Full

Hourly Weather History & Observations

Time (EEST) Temp. Heat Index Dew Point Humidity Pressure Visibility Wind Dir Wind Speed Gust Speed Precip Events Conditions
12:00 AM 78.8 °F - 64.4 °F 61% 29.98 in 6.2 mi SE 4.6 mph - N/A   Unknown
1:00 AM 73 °F - 64 °F 65% 30.00 in 12 mi Calm Calm - -  
1:00 AM 78.8 °F - 66.2 °F 65% 30.01 in 6.2 mi SE 4.6 mph - N/A   Unknown
2:00 AM 71 °F - 62 °F 67% 30.00 in 12 mi ESE 2.2 mph - -  
2:00 AM 77.0 °F - 64.4 °F 65% 30.01 in 6.2 mi SE 6.9 mph - N/A   Unknown
3:00 AM 71 °F - 62 °F 67% 29.99 in 12 mi ESE 4.5 mph - -  
3:00 AM 75.2 °F - 64.4 °F 69% 30.01 in 6.2 mi SE 6.9 mph - N/A   Unknown
4:00 AM 69 °F - 62 °F 73% 29.99 in 12 mi ESE 2.2 mph - -  
4:00 AM 73.4 °F - 66.2 °F 78% 29.98 in - ESE 2.3 mph - N/A   Clear
5:00 AM 71 °F - 62 °F 66% 29.99 in 12 mi ESE 4.5 mph - -  
5:00 AM 73.4 °F - 64.4 °F 73% 29.98 in - SE 2.3 mph - N/A   Clear
6:00 AM 72 °F - 62 °F 62% 29.99 in 12 mi ESE 4.5 mph - -  
6:00 AM 73.4 °F - 64.4 °F 73% 29.98 in - SE 6.9 mph - N/A   Clear
6:30 AM 73.4 °F - 64.4 °F 73% 29.98 in - SE 8.1 mph - N/A   Clear
7:00 AM 69 °F - 62 °F 72% 29.99 in 12 mi ESE 4.5 mph - -  
7:00 AM 73.4 °F - 64.4 °F 73% 29.98 in - SE 6.9 mph - N/A   Clear
7:30 AM 75.2 °F - 64.4 °F 69% 29.98 in - SSE 9.2 mph - N/A   Clear
8:00 AM 75 °F - 63 °F 57% 29.99 in 6 mi ESE 4.5 mph - -  
8:00 AM 77.0 °F - 66.2 °F 69% 29.98 in - SE 9.2 mph - N/A   Clear
8:30 AM 78.8 °F - 66.2 °F 65% 29.98 in - SSE 9.2 mph - N/A   Clear
9:00 AM 80 °F - 63 °F 46% 29.99 in 12 mi ESE 4.5 mph - -  
9:00 AM 82.4 °F 83.9 °F 64.4 °F 54% 29.98 in - SE 9.2 mph - N/A   Clear
9:30 AM 84.2 °F 85.6 °F 64.4 °F 51% 29.98 in - SSE 11.5 mph - N/A   Clear
10:00 AM 85 °F - 63 °F 37% 29.97 in 12 mi ESE 4.5 mph - -  
10:00 AM 86.0 °F 86.6 °F 62.6 °F 45% 29.98 in - SE 11.5 mph - N/A   Clear
10:30 AM 89.6 °F 90.1 °F 62.6 °F 40% 29.98 in - SSE 9.2 mph - N/A   Clear
11:00 AM 90 °F - 61 °F 27% 29.96 in 12 mi ESE 4.5 mph - -  
11:00 AM 89.6 °F 90.1 °F 62.6 °F 40% 29.98 in - SSW 6.9 mph - N/A   Clear
11:30 AM 91.4 °F 90.7 °F 59.0 °F 34% 29.98 in - South 6.9 mph - N/A   Clear
12:00 PM 93 °F - 61 °F 25% 29.96 in 6 mi SSE 4.5 mph - -  
12:00 PM 93.2 °F 93.3 °F 60.8 °F 34% 29.98 in - SSW 6.9 mph - N/A   Clear
12:30 PM 95.0 °F 94.4 °F 59.0 °F 30% 29.98 in - South 9.2 mph - N/A   Clear
1:00 PM 96 °F - 59 °F 20% 29.95 in 6 mi SSE 4.5 mph - -  
1:00 PM 95.0 °F 94.4 °F 59.0 °F 30% 29.95 in - South 6.9 mph - N/A   Clear
1:30 PM 96.8 °F 95.1 °F 55.4 °F 25% 29.95 in - SSE 6.9 mph - N/A   Clear
2:00 PM 98 °F - 57 °F 17% 29.93 in 6 mi South 4.5 mph - -  
2:00 PM 96.8 °F - 51.8 °F 22% 29.95 in - South 11.5 mph - N/A   Clear
2:30 PM 98.6 °F 96.4 °F 53.6 °F 22% 29.95 in - SW 11.5 mph - N/A   Clear
3:00 PM 98 °F - 56 °F 16% 29.92 in 6 mi SSW 4.5 mph - -  
3:00 PM 98.6 °F 97.2 °F 55.4 °F 24% 29.95 in - South 11.5 mph - N/A   Clear
3:30 PM 98.6 °F 97.2 °F 55.4 °F 24% 29.92 in - SSW 9.2 mph - N/A   Clear
4:00 PM 100 °F - 54 °F 13% 29.90 in 6 mi South 4.5 mph - -  
4:00 PM 98.6 °F - 51.8 °F 21% 29.92 in - SSW 11.5 mph - N/A   Clear
4:30 PM 98.6 °F 96.4 °F 53.6 °F 22% 29.92 in - WSW 13.8 mph - N/A   Clear
5:00 PM 100 °F - 53 °F 12% 29.89 in 6 mi South 6.7 mph - -  
5:00 PM 98.6 °F 96.4 °F 53.6 °F 22% 29.92 in - WSW 11.5 mph - N/A   Clear
5:30 PM 98.6 °F 96.4 °F 53.6 °F 22% 29.89 in - SW 6.9 mph - N/A   Clear
6:00 PM 100 °F - 54 °F 14% 29.87 in 6 mi WSW 4.5 mph - -  
6:00 PM 98.6 °F 97.6 °F 57.2 °F 25% 29.89 in - SSW 6.9 mph - N/A   Clear
6:30 PM 96.8 °F 95.8 °F 57.2 °F 27% 29.89 in - WSW 6.9 mph - N/A   Clear
7:00 PM 99 °F - 56 °F 15% 29.86 in 12 mi SSW 2.2 mph - -  
7:00 PM 96.8 °F 97.1 °F 60.8 °F 30% 29.89 in - West 4.6 mph - N/A   Clear
7:30 PM 96.8 °F 98.0 °F 62.6 °F 32% 29.86 in - WSW 6.9 mph - N/A   Clear
8:00 PM 97 °F - 58 °F 19% 29.85 in 12 mi SSW 4.5 mph - -  
8:00 PM 95.0 °F 96.0 °F 62.6 °F 34% 29.86 in - South 4.6 mph - N/A   Clear
8:30 PM 93.2 °F 94.9 °F 64.4 °F 38% 29.86 in - SSW 4.6 mph - N/A   Clear
9:00 PM 93 °F - 63 °F 27% 29.86 in 12 mi SSW 2.2 mph - -  
9:00 PM 87.8 °F 91.4 °F 68.0 °F 52% 29.86 in - SSW 4.6 mph - N/A   Clear
9:30 PM 86.0 °F 88.2 °F 66.2 °F 51% 29.86 in - SSW 4.6 mph - N/A   Clear
10:00 PM 82 °F - 65 °F 48% 29.87 in 12 mi South 4.5 mph - -  
10:00 PM 84.2 °F 86.6 °F 66.2 °F 55% 29.86 in - Variable 2.3 mph - N/A   Clear
11:00 PM 80 °F - 64 °F 49% 29.88 in 12 mi South 4.5 mph - -  
11:00 PM 82.4 °F 84.6 °F 66.2 °F 58% 29.86 in 6.2 mi SSW 6.9 mph - N/A   Unknown